Flag for United Kingdom Weather past 2 weeks in Stornoway, Scotland, United Kingdom

Now
52 °F

Cool.


Feels Like: 46 °F
Forecast: 50 / 56 °F
Wind: 17 mph from Southwest

Location: Stornoway

Current Time: Oct 2, 2014 at 6:28:38 AM

Latest Report: Oct 2, 2014 at 5:50 AM


Visibility: N/A

Pressure: 30.15 "Hg

Humidity: 82%

Dew point: 46 °F

Location of StornowayLocation

Historic Weather in Stornoway — Graph

°F

Stornoway temperature yesterday

Maximum temperature yesterday: 59 °F (at 12:50 PM)
Minimum temperature yesterday: 46 °F (at 7:20 AM)
Average temperature yesterday: 52 °F

Past Weeks' High & Low Weather Summary

 TemperatureHumidityPressure
High64 °F (Sep 17, 11:50 AM)100% (Sep 17, 6:20 AM)30.36 "Hg (Sep 17, 6:20 AM)
Low46 °F (Sep 20, 4:20 AM)51% (Oct 1, 3:20 PM)29.56 "Hg (Sep 25, 11:50 PM)
Average55 °F84%29.98 "Hg
* Reported Sep 17 5:20 AM — Oct 2 5:20 AM, Stornoway, Weather by CustomWeather, © 2014

Note: Actual official high and low records may vary slightly from our data, if they occured in-between our weather recording intervals... More about our weather records

Advertising

Stornoway weather history for previous 24 hours

 ConditionsComfort  
Time TempWeatherWind HumidityBarometerVisibility
5:20 AM
Oct 2
52 °FPassing clouds.17 mph82%30.18 "HgN/A
4:50 AM52 °FCool.17 mph82%30.18 "HgN/A
4:20 AM52 °FCool.16 mph82%30.18 "HgN/A
3:50 AM52 °FCool.14 mph82%30.18 "HgN/A
3:20 AM50 °FPassing clouds.14 mph82%30.21 "HgN/A
2:50 AM50 °FSprinkles. Overcast.13 mph88%30.21 "HgN/A
2:20 AM50 °FCool.14 mph82%30.18 "HgN/A
1:50 AM50 °FSprinkles. Passing clouds.14 mph82%30.21 "HgN/A
1:20 AM48 °FPassing clouds.10 mph87%30.21 "HgN/A
12:50 AM48 °FRain showers. Passing clouds.16 mph87%30.21 "Hg4 mi
12:20 AM50 °FRain showers. Passing clouds.10 mph82%30.21 "Hg5 mi
11:50 PM
Oct 1
48 °FRain showers. Passing clouds.12 mph87%30.18 "HgN/A
11:20 PM50 °FCool.10 mph82%30.18 "HgN/A
10:50 PM50 °FPassing clouds.12 mph82%30.18 "HgN/A
10:20 PM50 °FPassing clouds.14 mph82%30.18 "HgN/A
9:50 PM50 °FPassing clouds.10 mph82%30.18 "HgN/A
9:20 PM48 °FSprinkles. Passing clouds.8 mph87%30.18 "HgN/A
8:50 PM48 °FScattered showers. Passing clouds.12 mph87%30.18 "HgN/A
8:20 PM48 °FScattered showers. Passing clouds.9 mph87%30.15 "HgN/A
7:50 PM48 °FScattered showers. Scattered clouds.12 mph87%30.15 "HgN/A
7:20 PM48 °FScattered showers. Passing clouds.16 mph87%30.12 "HgN/A
6:50 PM48 °FScattered showers. Passing clouds.15 mph82%30.15 "HgN/A
6:20 PM50 °FScattered showers. Scattered clouds.15 mph82%30.12 "HgN/A
5:50 PM50 °FScattered showers. Scattered clouds.18 mph82%30.12 "HgN/A
5:20 PM54 °FScattered showers. Scattered clouds.22 mph72%30.12 "HgN/A
4:50 PM54 °FScattered showers. Scattered clouds.15 mph72%30.09 "HgN/A
4:20 PM54 °FScattered showers. Scattered clouds.25 mph63%30.09 "HgN/A
3:50 PM57 °FScattered clouds.23 mph59%30.09 "HgN/A
3:20 PM57 °FScattered clouds.26 mph51%30.09 "HgN/A
2:50 PM55 °FScattered clouds.26 mph59%30.07 "HgN/A
2:20 PM55 °FScattered clouds.24 mph63%30.07 "HgN/A
1:50 PM57 °FScattered clouds.25 mph59%30.07 "HgN/A
1:20 PM55 °FScattered clouds.23 mph67%30.07 "HgN/A
12:50 PM59 °FScattered clouds.23 mph55%30.04 "HgN/A
12:20 PM55 °FScattered showers. Scattered clouds.23 mph67%30.04 "HgN/A
11:50 AM54 °FScattered showers. Scattered clouds.26 mph67%30.04 "HgN/A
11:20 AM55 °FScattered clouds.21 mph67%30.04 "HgN/A
10:50 AM55 °FScattered showers. Passing clouds.20 mph67%30.01 "HgN/A
10:20 AM52 °FPassing clouds.17 mph77%30.01 "HgN/A
9:50 AM52 °FPassing clouds.13 mph77%29.98 "HgN/A
9:20 AM50 °FScattered showers. Scattered clouds.9 mph82%29.98 "HgN/A
8:50 AM48 °FPassing clouds.6 mph82%29.98 "HgN/A
8:20 AM46 °FPassing clouds.6 mph82%29.95 "HgN/A
7:50 AM46 °FPassing clouds.7 mph82%29.95 "HgN/A
7:20 AM46 °FPassing clouds.7 mph82%29.95 "HgN/A
6:50 AM48 °FPassing clouds.7 mph87%29.92 "HgN/A
6:20 AM50 °FPassing clouds.7 mph88%29.92 "HgN/A
Weather by CustomWeather, © 2014

See weather overviewHow to use our weather pages